Time,TemperatureF,DewpointF,PressureIn,WindDirection,WindDirectionDegrees,WindSpeedMPH,WindSpeedGustMPH,Humidity,HourlyPrecipIn,Conditions,Clouds,dailyrainin,SolarRadiationWatts/m^2,SoftwareType,DateUTC
2013-06-13 00:04:00,59.9,54.1,29.81,NE,38,0.0,2.0,81,0.00,,,0.00,0,Wunderground v.1.15,2013-06-13 04:04:00,
2013-06-13 00:09:00,59.9,54.4,29.81,NE,38,0.0,2.0,82,0.00,,,0.00,0,Wunderground v.1.15,2013-06-13 04:09:00,
2013-06-13 00:14:00,60.0,54.5,29.82,NE,38,0.0,2.0,82,0.00,,,0.00,0,Wunderground v.1.15,2013-06-13 04:14:00,
2013-06-13 00:24:00,59.7,54.2,29.81,NE,38,0.0,2.0,82,0.00,,,0.00,0,Wunderground v.1.15,2013-06-13 04:24:00,
2013-06-13 00:29:00,59.5,54.3,29.81,NE,38,0.0,2.0,83,0.00,,,0.00,0,Wunderground v.1.15,2013-06-13 04:29:00,
2013-06-13 00:34:00,59.4,54.2,29.81,NE,38,0.0,2.0,83,0.00,,,0.00,0,Wunderground v.1.15,2013-06-13 04:34:00,
2013-06-13 00:44:00,58.9,54.1,29.81,NE,38,0.0,2.0,84,0.00,,,0.00,0,Wunderground v.1.15,2013-06-13 04:44:00,
2013-06-13 00:49:00,58.4,54.2,29.81,NE,38,0.0,2.0,86,0.00,,,0.00,0,Wunderground v.1.15,2013-06-13 04:49:00,
2013-06-13 00:59:00,58.4,54.2,29.80,NE,38,0.0,1.0,86,0.00,,,0.00,0,Wunderground v.1.15,2013-06-13 04:59:00,
2013-06-13 01:09:00,58.4,54.2,29.81,NE,38,0.0,1.0,86,0.00,,,0.00,0,Wunderground v.1.15,2013-06-13 05:09:00,
2013-06-13 01:19:00,58.4,54.2,29.81,NE,38,0.0,1.0,86,0.00,,,0.00,0,Wunderground v.1.15,2013-06-13 05:19:00,
2013-06-13 01:29:00,58.4,54.2,29.81,NE,38,0.0,1.0,86,0.00,,,0.00,0,Wunderground v.1.15,2013-06-13 05:29:00,
2013-06-13 01:39:00,58.3,54.1,29.81,NE,38,0.0,1.0,86,0.00,,,0.00,0,Wunderground v.1.15,2013-06-13 05:39:00,
2013-06-13 01:49:00,58.5,54.0,29.81,NE,38,0.0,1.0,85,0.00,,,0.00,0,Wunderground v.1.15,2013-06-13 05:49:00,
2013-06-13 01:59:00,58.4,53.9,29.81,NE,38,0.0,1.0,85,0.00,,,0.00,0,Wunderground v.1.15,2013-06-13 05:59:00,
2013-06-13 02:09:00,57.4,53.6,29.81,NE,38,0.0,1.0,87,0.00,,,0.00,0,Wunderground v.1.15,2013-06-13 06:09:00,
2013-06-13 02:19:00,57.1,53.9,29.81,NE,38,0.0,1.0,89,0.00,,,0.00,0,Wunderground v.1.15,2013-06-13 06:19:00,
2013-06-13 02:29:00,56.9,53.7,29.80,NE,38,0.0,1.0,89,0.00,,,0.00,0,Wunderground v.1.15,2013-06-13 06:29:00,
2013-06-13 02:39:00,56.2,53.3,29.79,NE,38,0.0,1.0,90,0.00,,,0.00,0,Wunderground v.1.15,2013-06-13 06:39:00,
2013-06-13 02:49:00,56.0,53.4,29.80,NE,38,0.0,1.0,91,0.00,,,0.00,0,Wunderground v.1.15,2013-06-13 06:49:00,
2013-06-13 02:59:00,56.0,53.1,29.80,NE,38,0.0,0.0,90,0.00,,,0.00,0,Wunderground v.1.15,2013-06-13 06:59:00,
2013-06-13 03:04:00,56.2,53.3,29.80,NE,38,0.0,0.0,90,0.00,,,0.00,0,Wunderground v.1.15,2013-06-13 07:04:00,
2013-06-13 03:14:00,56.6,53.7,29.80,NE,38,0.0,0.0,90,0.00,,,0.00,0,Wunderground v.1.15,2013-06-13 07:14:00,
2013-06-13 03:24:00,56.7,53.8,29.80,NE,38,0.0,1.0,90,0.00,,,0.00,0,Wunderground v.1.15,2013-06-13 07:24:00,
2013-06-13 03:29:00,56.6,54.0,29.81,NE,38,0.0,1.0,91,0.00,,,0.00,0,Wunderground v.1.15,2013-06-13 07:29:00,
2013-06-13 03:39:00,56.7,54.1,29.81,NE,38,0.0,1.0,91,0.00,,,0.00,0,Wunderground v.1.15,2013-06-13 07:39:00,
2013-06-13 03:49:00,57.2,54.9,29.81,NE,38,0.0,1.0,92,0.00,,,0.00,0,Wunderground v.1.15,2013-06-13 07:49:00,
2013-06-13 03:59:00,57.3,55.0,29.80,NE,38,0.0,1.0,92,0.00,,,0.00,0,Wunderground v.1.15,2013-06-13 07:59:00,
2013-06-13 04:09:00,57.1,54.8,29.80,NE,38,0.0,1.0,92,0.00,,,0.00,0,Wunderground v.1.15,2013-06-13 08:09:00,
2013-06-13 04:19:00,56.3,54.0,29.80,NE,38,0.0,1.0,92,0.00,,,0.00,0,Wunderground v.1.15,2013-06-13 08:19:00,
2013-06-13 04:29:00,55.9,53.9,29.79,NE,38,0.0,2.0,93,0.00,,,0.00,0,Wunderground v.1.15,2013-06-13 08:29:00,
2013-06-13 04:34:00,56.0,54.0,29.79,NE,38,0.0,2.0,93,0.00,,,0.00,0,Wunderground v.1.15,2013-06-13 08:34:00,
2013-06-13 04:44:00,56.1,54.1,29.80,NE,38,0.0,2.0,93,0.00,,,0.00,0,Wunderground v.1.15,2013-06-13 08:44:00,
2013-06-13 04:54:00,56.1,54.4,29.80,NE,38,0.0,2.0,94,0.00,,,0.00,0,Wunderground v.1.15,2013-06-13 08:54:00,
2013-06-13 04:59:00,56.0,54.0,29.80,NE,38,0.0,2.0,93,0.00,,,0.00,0,Wunderground v.1.15,2013-06-13 08:59:00,
2013-06-13 05:09:00,55.9,54.2,29.80,NE,38,0.0,2.0,94,0.00,,,0.00,0,Wunderground v.1.15,2013-06-13 09:09:00,
2013-06-13 05:19:00,56.1,54.4,29.81,NE,38,0.0,2.0,94,0.00,,,0.00,5,Wunderground v.1.15,2013-06-13 09:19:00,
2013-06-13 05:29:00,56.6,54.6,29.80,NE,38,0.0,2.0,93,0.00,,,0.00,11,Wunderground v.1.15,2013-06-13 09:29:00,
2013-06-13 05:39:00,57.1,55.1,29.79,NE,38,0.0,1.0,93,0.00,,,0.00,14,Wunderground v.1.15,2013-06-13 09:39:00,
2013-06-13 05:44:00,57.3,55.6,29.79,NE,38,0.0,1.0,94,0.00,,,0.00,21,Wunderground v.1.15,2013-06-13 09:44:00,
2013-06-13 05:54:00,57.9,55.9,29.79,NE,38,0.0,2.0,93,0.00,,,0.00,14,Wunderground v.1.15,2013-06-13 09:54:00,
2013-06-13 06:04:00,58.3,56.3,29.79,NE,38,0.0,2.0,93,0.00,,,0.00,19,Wunderground v.1.15,2013-06-13 10:04:00,
2013-06-13 06:14:00,58.8,56.8,29.80,NE,38,0.0,2.0,93,0.00,,,0.00,28,Wunderground v.1.15,2013-06-13 10:14:00,
2013-06-13 06:24:00,59.2,56.9,29.80,NE,38,0.0,2.0,92,0.00,,,0.00,47,Wunderground v.1.15,2013-06-13 10:24:00,
2013-06-13 06:34:00,60.0,57.7,29.80,NE,38,0.0,1.0,92,0.00,,,0.00,98,Wunderground v.1.15,2013-06-13 10:34:00,
2013-06-13 06:44:00,60.9,58.3,29.81,NE,38,0.0,1.0,91,0.00,,,0.00,105,Wunderground v.1.15,2013-06-13 10:44:00,
2013-06-13 06:54:00,61.6,58.3,29.80,NE,38,0.0,1.0,89,0.00,,,0.00,132,Wunderground v.1.15,2013-06-13 10:54:00,
2013-06-13 07:04:00,62.5,58.6,29.80,SE,143,1.0,2.0,87,0.00,,,0.00,116,Wunderground v.1.15,2013-06-13 11:04:00,
2013-06-13 07:14:00,62.8,57.9,29.80,SSE,153,2.0,2.0,84,0.00,,,0.00,56,Wunderground v.1.15,2013-06-13 11:14:00,
2013-06-13 07:24:00,62.6,57.4,29.79,ESE,112,2.0,4.0,83,0.00,,,0.00,44,Wunderground v.1.15,2013-06-13 11:24:00,
2013-06-13 07:34:00,62.5,56.9,29.78,East,86,2.0,4.0,82,0.00,,,0.00,113,Wunderground v.1.15,2013-06-13 11:34:00,
2013-06-13 07:44:00,63.0,56.7,29.77,ENE,65,3.0,4.0,80,0.00,,,0.00,90,Wunderground v.1.15,2013-06-13 11:44:00,
2013-06-13 07:54:00,63.2,56.6,29.77,East,92,3.0,8.0,79,0.00,,,0.00,127,Wunderground v.1.15,2013-06-13 11:54:00,
2013-06-13 08:04:00,63.7,56.4,29.77,East,84,3.0,5.0,77,0.00,,,0.00,156,Wunderground v.1.15,2013-06-13 12:04:00,
2013-06-13 08:14:00,64.1,56.0,29.77,ESE,108,4.0,4.0,75,0.00,,,0.00,172,Wunderground v.1.15,2013-06-13 12:14:00,
2013-06-13 08:24:00,64.4,56.7,29.77,ESE,104,5.0,8.0,76,0.00,,,0.00,155,Wunderground v.1.15,2013-06-13 12:24:00,
2013-06-13 08:34:00,64.3,56.2,29.78,East,83,4.0,8.0,75,0.00,,,0.00,54,Wunderground v.1.15,2013-06-13 12:34:00,
2013-06-13 08:44:00,63.6,56.3,29.77,ENE,71,4.0,8.0,77,0.00,,,0.00,65,Wunderground v.1.15,2013-06-13 12:44:00,
2013-06-13 08:49:00,63.7,56.4,29.77,ENE,78,4.0,8.0,77,0.00,,,0.00,79,Wunderground v.1.15,2013-06-13 12:49:00,
2013-06-13 08:59:00,63.8,56.4,29.76,ENE,77,4.0,8.0,77,0.00,,,0.00,107,Wunderground v.1.15,2013-06-13 12:59:00,
2013-06-13 09:04:00,63.9,56.9,29.77,East,100,5.0,8.0,78,0.00,,,0.00,105,Wunderground v.1.15,2013-06-13 13:04:00,
2013-06-13 09:14:00,63.4,56.8,29.77,East,90,4.0,6.0,79,0.00,,,0.00,100,Wunderground v.1.15,2013-06-13 13:14:00,
2013-06-13 09:24:00,63.2,57.3,29.74,ENE,77,7.0,10.0,81,0.00,,,0.00,229,Wunderground v.1.15,2013-06-13 13:24:00,
2013-06-13 09:29:00,63.2,57.6,29.75,ENE,58,6.0,10.0,82,0.00,,,0.00,186,Wunderground v.1.15,2013-06-13 13:29:00,
2013-06-13 09:39:00,62.8,57.2,29.75,East,85,5.0,10.0,82,0.00,,,0.00,81,Wunderground v.1.15,2013-06-13 13:39:00,
2013-06-13 09:49:00,62.7,57.5,29.75,ENE,73,6.0,6.0,83,0.00,,,0.00,258,Wunderground v.1.15,2013-06-13 13:49:00,
2013-06-13 09:59:00,63.2,57.6,29.75,ENE,69,5.0,14.0,82,0.00,,,0.00,174,Wunderground v.1.15,2013-06-13 13:59:00,
2013-06-13 10:09:00,63.3,57.4,29.74,SE,132,5.0,14.0,81,0.00,,,0.00,128,Wunderground v.1.15,2013-06-13 14:09:00,
2013-06-13 10:19:00,63.2,57.3,29.74,ENE,76,6.0,14.0,81,0.00,,,0.00,107,Wunderground v.1.15,2013-06-13 14:19:00,
2013-06-13 10:24:00,63.2,57.6,29.74,ENE,70,6.0,14.0,82,0.00,,,0.00,120,Wunderground v.1.15,2013-06-13 14:24:00,
2013-06-13 10:34:00,63.1,57.5,29.72,East,80,8.0,11.0,82,0.00,,,0.00,137,Wunderground v.1.15,2013-06-13 14:34:00,
2013-06-13 10:43:00,62.8,57.6,29.73,ENE,67,7.0,11.0,83,0.00,,,0.00,107,Wunderground v.1.15,2013-06-13 14:43:00,
2013-06-13 10:49:00,62.6,57.4,29.72,East,82,6.0,11.0,83,0.00,,,0.00,135,Wunderground v.1.15,2013-06-13 14:49:00,
2013-06-13 10:59:00,62.4,57.8,29.74,East,96,7.0,7.0,85,0.00,,,0.00,135,Wunderground v.1.15,2013-06-13 14:59:00,
2013-06-13 11:04:00,62.3,58.1,29.73,ESE,106,5.0,15.0,86,0.00,,,0.00,211,Wunderground v.1.15,2013-06-13 15:04:00,
2013-06-13 11:14:00,62.5,58.6,29.73,East,80,3.0,15.0,87,0.00,,,0.00,134,Wunderground v.1.15,2013-06-13 15:14:00,
2013-06-13 11:24:00,62.2,58.3,29.73,East,86,5.0,6.0,87,0.00,,,0.00,86,Wunderground v.1.15,2013-06-13 15:24:00,
2013-06-13 11:34:00,62.1,58.2,29.76,East,94,2.0,14.0,87,0.00,,,0.01,56,Wunderground v.1.15,2013-06-13 15:34:00,
2013-06-13 11:44:00,61.6,58.0,29.71,East,89,6.0,14.0,88,0.20,,,0.03,109,Wunderground v.1.15,2013-06-13 15:44:00,
2013-06-13 11:54:00,61.2,58.2,29.70,ENE,76,6.0,11.0,90,0.08,,,0.04,130,Wunderground v.1.15,2013-06-13 15:54:00,
2013-06-13 12:04:00,61.0,58.0,29.71,ESE,103,6.0,7.0,90,0.04,,,0.05,93,Wunderground v.1.15,2013-06-13 16:04:00,
2013-06-13 12:13:00,60.8,57.8,29.71,East,85,6.0,14.0,90,0.12,,,0.07,67,Wunderground v.1.15,2013-06-13 16:13:00,
2013-06-13 12:19:00,60.5,57.6,29.73,East,86,5.0,14.0,90,0.18,,,0.09,35,Wunderground v.1.15,2013-06-13 16:19:00,
2013-06-13 12:29:00,60.0,57.7,29.71,East,94,5.0,13.0,92,0.66,,,0.18,67,Wunderground v.1.15,2013-06-13 16:29:00,
2013-06-13 12:39:00,59.7,57.4,29.71,ENE,75,8.0,8.0,92,0.34,,,0.26,76,Wunderground v.1.15,2013-06-13 16:39:00,
2013-06-13 12:49:00,59.6,57.6,29.68,East,84,9.0,9.0,93,0.28,,,0.30,171,Wunderground v.1.15,2013-06-13 16:49:00,
2013-06-13 12:59:00,60.1,58.4,29.69,ESE,112,8.0,17.0,94,0.26,,,0.34,304,Wunderground v.1.15,2013-06-13 16:59:00,
2013-06-13 13:09:00,60.4,58.4,29.68,ESE,114,9.0,9.0,93,0.09,,,0.35,199,Wunderground v.1.15,2013-06-13 17:09:00,
2013-06-13 13:19:00,60.4,58.7,29.67,ESE,113,10.0,10.0,94,0.04,,,0.35,385,Wunderground v.1.15,2013-06-13 17:19:00,
2013-06-13 13:29:00,60.6,58.6,29.65,East,101,9.0,19.0,93,0.00,,,0.35,515,Wunderground v.1.15,2013-06-13 17:29:00,
2013-06-13 13:39:00,61.6,59.3,29.63,ENE,66,12.0,12.0,92,0.00,,,0.35,633,Wunderground v.1.15,2013-06-13 17:39:00,
2013-06-13 13:48:00,62.2,59.8,29.62,SE,128,7.0,7.0,92,0.00,,,0.35,504,Wunderground v.1.15,2013-06-13 17:48:00,
2013-06-13 13:54:00,62.9,60.2,29.64,ESE,113,7.0,12.0,91,0.00,,,0.35,1076,Wunderground v.1.15,2013-06-13 17:54:00,
2013-06-13 14:04:00,64.1,60.2,29.65,ESE,104,10.0,21.0,87,0.00,,,0.35,1055,Wunderground v.1.15,2013-06-13 18:04:00,
2013-06-13 14:14:00,64.2,59.9,29.65,ESE,105,10.0,11.0,86,0.00,,,0.35,580,Wunderground v.1.15,2013-06-13 18:14:00,
2013-06-13 14:24:00,65.0,60.0,29.65,ESE,115,9.0,21.0,84,0.00,,,0.35,619,Wunderground v.1.15,2013-06-13 18:24:00,
2013-06-13 14:34:00,64.4,59.1,29.65,East,95,9.0,21.0,83,0.00,,,0.35,480,Wunderground v.1.15,2013-06-13 18:34:00,
2013-06-13 14:44:00,63.2,58.3,29.65,East,81,8.0,21.0,84,0.00,,,0.35,251,Wunderground v.1.15,2013-06-13 18:44:00,
2013-06-13 14:54:00,62.5,58.6,29.65,East,97,8.0,21.0,87,0.00,,,0.35,185,Wunderground v.1.15,2013-06-13 18:54:00,
2013-06-13 15:04:00,62.0,57.8,29.65,ENE,76,10.0,20.0,86,0.00,,,0.35,139,Wunderground v.1.15,2013-06-13 19:04:00,
2013-06-13 15:09:00,61.8,57.6,29.64,ENE,67,10.0,20.0,86,0.00,,,0.35,139,Wunderground v.1.15,2013-06-13 19:09:00,
2013-06-13 15:19:00,61.7,57.8,29.63,East,92,9.0,20.0,87,0.00,,,0.35,135,Wunderground v.1.15,2013-06-13 19:19:00,
2013-06-13 15:29:00,61.6,58.0,29.62,East,92,10.0,18.0,88,0.00,,,0.35,111,Wunderground v.1.15,2013-06-13 19:29:00,
2013-06-13 15:39:00,61.6,58.3,29.61,East,82,9.0,18.0,89,0.00,,,0.35,243,Wunderground v.1.15,2013-06-13 19:39:00,
2013-06-13 15:48:00,61.7,58.4,29.60,East,79,9.0,18.0,89,0.00,,,0.35,134,Wunderground v.1.15,2013-06-13 19:48:00,
2013-06-13 15:54:00,61.7,58.4,29.60,ENE,70,10.0,22.0,89,0.00,,,0.35,125,Wunderground v.1.15,2013-06-13 19:54:00,
2013-06-13 16:04:00,61.6,58.3,29.60,ENE,75,10.0,22.0,89,0.00,,,0.35,81,Wunderground v.1.15,2013-06-13 20:04:00,
2013-06-13 16:13:00,61.5,58.5,29.59,NE,36,8.0,22.0,90,0.00,,,0.35,76,Wunderground v.1.15,2013-06-13 20:13:00,
2013-06-13 16:19:00,61.5,58.5,29.59,ENE,74,9.0,22.0,90,0.00,,,0.35,79,Wunderground v.1.15,2013-06-13 20:19:00,
2013-06-13 16:29:00,61.6,58.9,29.58,ESE,123,10.0,10.0,91,0.00,,,0.35,118,Wunderground v.1.15,2013-06-13 20:29:00,
2013-06-13 16:38:00,61.7,59.0,29.57,East,82,10.0,18.0,91,0.00,,,0.35,188,Wunderground v.1.15,2013-06-13 20:38:00,
2013-06-13 16:44:00,61.9,58.9,29.57,ESE,111,9.0,18.0,90,0.00,,,0.35,237,Wunderground v.1.15,2013-06-13 20:44:00,
2013-06-13 16:54:00,62.2,58.9,29.58,ENE,75,10.0,15.0,89,0.00,,,0.35,227,Wunderground v.1.15,2013-06-13 20:54:00,
2013-06-13 17:04:00,62.1,58.8,29.57,East,87,11.0,24.0,89,0.00,,,0.35,84,Wunderground v.1.15,2013-06-13 21:04:00,
2013-06-13 17:14:00,61.8,58.5,29.56,ESE,109,10.0,24.0,89,0.00,,,0.35,107,Wunderground v.1.15,2013-06-13 21:14:00,
2013-06-13 17:24:00,61.5,58.5,29.56,East,80,11.0,24.0,90,0.00,,,0.35,86,Wunderground v.1.15,2013-06-13 21:24:00,
2013-06-13 17:34:00,61.2,58.2,29.56,ENE,63,13.0,24.0,90,0.00,,,0.35,46,Wunderground v.1.15,2013-06-13 21:34:00,
2013-06-13 17:44:00,61.2,58.6,29.57,NE,45,8.0,12.0,91,0.00,,,0.35,42,Wunderground v.1.15,2013-06-13 21:44:00,
2013-06-13 17:54:00,61.1,58.5,29.55,ENE,78,10.0,10.0,91,0.00,,,0.35,54,Wunderground v.1.15,2013-06-13 21:54:00,
2013-06-13 18:04:00,61.1,58.5,29.54,East,79,12.0,24.0,91,0.00,,,0.35,56,Wunderground v.1.15,2013-06-13 22:04:00,
2013-06-13 18:14:00,61.0,58.4,29.52,East,96,12.0,16.0,91,0.00,,,0.35,54,Wunderground v.1.15,2013-06-13 22:14:00,
2013-06-13 18:24:00,60.8,58.2,29.52,NE,53,12.0,23.0,91,0.00,,,0.35,35,Wunderground v.1.15,2013-06-13 22:24:00,
2013-06-13 18:34:00,60.8,58.2,29.52,East,101,12.0,23.0,91,0.00,,,0.35,16,Wunderground v.1.15,2013-06-13 22:34:00,
2013-06-13 18:39:00,60.7,58.1,29.52,East,91,12.0,23.0,91,0.00,,,0.35,11,Wunderground v.1.15,2013-06-13 22:39:00,
2013-06-13 18:49:00,60.6,58.3,29.52,East,86,13.0,23.0,92,0.00,,,0.35,9,Wunderground v.1.15,2013-06-13 22:49:00,
2013-06-13 18:59:00,60.4,58.1,29.52,NE,44,11.0,25.0,92,0.00,,,0.35,7,Wunderground v.1.15,2013-06-13 22:59:00,
2013-06-13 19:09:00,60.4,58.1,29.51,NE,53,11.0,11.0,92,0.00,,,0.35,9,Wunderground v.1.15,2013-06-13 23:09:00,
2013-06-13 19:19:00,60.3,58.3,29.52,NE,53,11.0,25.0,93,0.00,,,0.35,9,Wunderground v.1.15,2013-06-13 23:19:00,
2013-06-13 19:29:00,60.2,58.2,29.52,NE,54,10.0,10.0,93,0.00,,,0.35,7,Wunderground v.1.15,2013-06-13 23:29:00,
2013-06-13 19:39:00,60.1,58.1,29.51,NE,34,11.0,24.0,93,0.00,,,0.35,0,Wunderground v.1.15,2013-06-13 23:39:00,
2013-06-13 19:44:00,60.1,58.1,29.52,ENE,62,10.0,24.0,93,0.00,,,0.35,0,Wunderground v.1.15,2013-06-13 23:44:00,
2013-06-13 19:54:00,60.0,58.0,29.51,NE,45,11.0,11.0,93,0.00,,,0.35,0,Wunderground v.1.15,2013-06-13 23:54:00,
2013-06-13 20:04:00,59.9,57.9,29.51,ENE,70,11.0,22.0,93,0.00,,,0.35,0,Wunderground v.1.15,2013-06-14 00:04:00,
2013-06-13 20:14:00,59.9,57.9,29.51,NNW,345,12.0,22.0,93,0.00,,,0.35,0,Wunderground v.1.15,2013-06-14 00:14:00,
2013-06-13 20:24:00,59.8,57.5,29.51,ENE,63,11.0,23.0,92,0.00,,,0.35,0,Wunderground v.1.15,2013-06-14 00:24:00,
2013-06-13 20:34:00,59.8,57.5,29.50,NE,51,12.0,23.0,92,0.00,,,0.35,0,Wunderground v.1.15,2013-06-14 00:34:00,
2013-06-13 20:44:00,59.7,57.7,29.50,North,11,11.0,23.0,93,0.00,,,0.35,0,Wunderground v.1.15,2013-06-14 00:44:00,
2013-06-13 20:54:00,59.6,57.6,29.50,NNE,32,11.0,23.0,93,0.00,,,0.36,0,Wunderground v.1.15,2013-06-14 00:54:00,
2013-06-13 21:04:00,59.3,57.3,29.50,ENE,59,10.0,15.0,93,0.19,,,0.40,0,Wunderground v.1.15,2013-06-14 01:04:00,
2013-06-13 21:13:00,59.0,57.3,29.50,NE,44,10.0,23.0,94,0.18,,,0.43,0,Wunderground v.1.15,2013-06-14 01:13:00,
2013-06-13 21:19:00,59.0,57.3,29.51,NE,44,12.0,12.0,94,0.88,,,0.46,0,Wunderground v.1.15,2013-06-14 01:19:00,
2013-06-13 21:29:00,58.8,57.1,29.50,ENE,75,12.0,24.0,94,0.55,,,0.57,0,Wunderground v.1.15,2013-06-14 01:29:00,
2013-06-13 21:39:00,58.5,57.1,29.49,NNE,23,12.0,12.0,95,0.10,,,0.60,0,Wunderground v.1.15,2013-06-14 01:39:00,
2013-06-13 21:49:00,58.4,57.0,29.49,East,84,13.0,24.0,95,0.05,,,0.61,0,Wunderground v.1.15,2013-06-14 01:49:00,
2013-06-13 21:58:00,58.0,56.6,29.48,NE,48,12.0,30.0,95,0.07,,,0.62,0,Wunderground v.1.15,2013-06-14 01:58:00,
2013-06-13 22:04:00,58.0,56.6,29.48,NE,53,12.0,30.0,95,0.06,,,0.62,0,Wunderground v.1.15,2013-06-14 02:04:00,
2013-06-13 22:14:00,57.8,56.4,29.47,NNE,19,13.0,30.0,95,0.00,,,0.62,0,Wunderground v.1.15,2013-06-14 02:14:00,
2013-06-13 22:24:00,57.4,56.0,29.47,ENE,65,13.0,14.0,95,0.00,,,0.62,0,Wunderground v.1.15,2013-06-14 02:24:00,
2013-06-13 22:34:00,57.1,55.7,29.47,NNE,16,14.0,26.0,95,0.00,,,0.62,0,Wunderground v.1.15,2013-06-14 02:34:00,
2013-06-13 22:43:00,56.9,55.5,29.46,NE,34,11.0,14.0,95,0.00,,,0.62,0,Wunderground v.1.15,2013-06-14 02:43:00,
2013-06-13 22:49:00,56.9,55.5,29.46,North,355,11.0,11.0,95,0.00,,,0.62,0,Wunderground v.1.15,2013-06-14 02:49:00,
2013-06-13 22:59:00,56.8,55.1,29.46,NNE,13,12.0,12.0,94,0.00,,,0.62,0,Wunderground v.1.15,2013-06-14 02:59:00,
2013-06-13 23:09:00,56.9,55.5,29.46,NNE,27,10.0,10.0,95,0.00,,,0.62,0,Wunderground v.1.15,2013-06-14 03:09:00,
2013-06-13 23:19:00,56.9,55.5,29.46,NE,38,10.0,10.0,95,0.00,,,0.62,0,Wunderground v.1.15,2013-06-14 03:19:00,
2013-06-13 23:24:00,56.8,55.1,29.46,North,355,9.0,27.0,94,0.00,,,0.62,0,Wunderground v.1.15,2013-06-14 03:24:00,
2013-06-13 23:34:00,56.7,55.0,29.46,NE,41,9.0,27.0,94,0.00,,,0.62,0,Wunderground v.1.15,2013-06-14 03:34:00,
2013-06-13 23:43:00,56.6,55.2,29.47,NE,34,10.0,27.0,95,0.00,,,0.62,0,Wunderground v.1.15,2013-06-14 03:43:00,
2013-06-13 23:49:00,56.6,55.2,29.46,NNE,24,9.0,27.0,95,0.00,,,0.63,0,Wunderground v.1.15,2013-06-14 03:49:00,
2013-06-13 23:59:00,56.5,55.1,29.46,NE,50,8.0,8.0,95,0.06,,,0.64,0,Wunderground v.1.15,2013-06-14 03:59:00,